Location: Peterborough
(44.3091°N, 78.3197°W)
Time: 05:44:18
(UTC-04:00)

Vanguard 3 - Pass Details

Date: 27 March 2023
Orbit: 507 x 3246 km, 33.4° (Epoch: 04 June)

Event Time Altitude Azimuth Distance (km) Brightness Sun altitude
Rises 06:21:11 0° 260° (W) 7,057 - -8.4°
Exits shadow 06:25:08 - 258° (WSW) 6,293 10.9 -7.7°
Reaches altitude 10° 06:25:54 10° 257° (WSW) 6,144 10.9 -7.6°
Maximum altitude 06:45:01 58° 186° (S) 3,331 10.2 -4.2°
Drops below altitude 10° 06:59:31 10° 113° (ESE) 4,796 12.3 -1.6°
Sets 07:02:41 0° 109° (ESE) 5,488 12.8 -1.1°
